Wind_Speed
15 16 17 19 19 20 21 22 24 25 25 26 26 28 29 29 29 31 33 34 32 30 30 29 33 25 32 31 25 23 29 19 10 2 10 24 25 33 45 42 42 45 39
15 16 17 18 19 20 22 23 23 25 26 25 28 28 28 28 29 30 31 29 31 30 30 30 30 30 28 20 33 27 24 22 19 5 12 14 17 23 23 33 39 39 40
14 15 16 18 20 22 23 22 22 22 24 25 24 25 27 28 29 30 30 29 29 29 26 29 30 19 24 24 23 20 20 25 25 12 7 9 11 14 15 15 14 17 21
12 13 17 20 22 23 24 22 21 22 24 24 24 26 26 27 28 29 29 27 26 26 26 26 22 24 22 21 22 21 24 23 22 20 11 8 5 8 12 15 11 12 15
12 15 18 20 22 24 23 21 20 22 24 26 27 25 26 26 25 23 24 24 24 24 23 23 24 24 26 24 17 21 21 22 16 15 6 7 8 10 13 13 14 24 22
10 12 16 19 22 24 24 22 21 22 24 25 26 28 28 26 28 25 20 21 23 22 21 22 21 25 25 21 23 28 29 26 19 13 9 4 6 16 22 23 23 16 4
10 10 14 17 21 22 23 20 22 23 24 24 26 28 27 28 26 19 6 16 16 19 22 20 18 21 20 22 23 23 25 27 27 27 20 14 16 25 31 25 19 12 7
9 8 10 15 17 20 21 18 20 21 22 23 26 28 25 26 24 19 9 0 3 7 14 21 22 21 19 18 15 13 10 9 16 14 18 21 18 25 27 27 25 25 28
9 7 8 10 13 16 18 17 18 20 19 21 25 27 28 29 26 20 18 19 21 19 10 5 8 10 12 19 21 24 23 20 11 8 10 13 19 28 30 34 26 28 8
10 8 6 7 10 14 16 17 18 17 18 17 20 24 27 28 31 25 21 19 19 18 21 21 15 16 17 19 25 26 23 20 27 32 34 29 25 24 24 23 28 20 14
10 9 7 5 7 10 13 14 15 16 18 19 17 21 27 30 31 30 25 25 19 19 21 21 22 21 21 21 23 24 27 28 27 33 33 33 29 25 20 20 11 19 12
11 9 7 3 2 4 7 9 11 13 14 17 18 18 21 23 24 26 26 25 22 22 21 23 26 29 29 27 28 24 23 28 27 25 24 24 26 24 23 20 17 14 7
13 10 8 5 2 2 4 8 9 11 12 12 12 13 16 20 21 19 19 19 21 24 21 19 20 23 24 27 24 23 25 24 22 22 21 21 20 25 24 23 19 17 17
16 13 11 8 4 1 3 4 5 6 7 8 10 11 12 16 21 21 18 19 20 22 21 22 21 24 25 25 24 23 23 22 23 23 22 25 25 24 21 20 21 20 23
19 16 13 10 7 4 2 3 4 5 6 6 7 10 11 12 15 14 15 16 15 15 17 19 22 23 24 23 24 23 22 21 25 23 22 21 21 19 16 14 18 10 11
22 21 18 15 12 9 6 3 3 2 2 4 6 4 5 5 7 11 11 10 9 9 14 15 16 17 18 17 18 18 17 18 18 18 18 17 16 14 14 12 10 11 15
24 19 18 18 14 13 12 10 8 5 4 3 1 2 3 2 4 7 8 9 9 8 12 11 11 11 11 11 11 11 11 11 12 13 13 13 13 12 10 9 9 10 10
31 22 23 22 19 16 15 13 11 8 7 6 5 4 2 0 1 3 5 5 7 9 9 8 8 7 7 7 6 6 8 8 8 8 9 10 10 11 10 8 7 8 8
31 24 25 19 20 18 15 12 11 10 9 6 6 6 5 4 2 3 4 4 4 4 4 4 3 3 2 3 4 4 5 5 5 6 6 7 8 7 7 7 8 9 10
30 26 25 22 20 19 18 15 13 12 11 10 10 9 7 6 5 5 5 3 2 2 3 2 2 2 2 2 2 3 4 5 6 6 7 8 9 10 10 12 12 12 13
27 26 28 23 23 23 19 16 14 14 13 12 12 11 8 6 6 7 7 6 6 6 6 5 5 6 6 6 7 7 8 8 10 11 12 12 12 13 13 11 12 14 11
23 23 27 24 21 20 20 20 18 16 15 15 14 14 13 12 8 8 8 6 6 6 5 5 5 5 6 8 9 10 11 12 12 13 14 14 14 14 13 14 14 13 14
20 21 21 21 20 19 19 18 17 17 15 16 14 13 14 15 11 9 9 8 7 6 5 4 4 5 6 7 8 9 9 9 10 11 11 12 13 13 14 14 14 14 15
17 18 18 19 19 19 18 17 17 17 16 16 15 15 15 13 14 12 10 9 10 7 5 4 4 4 5 5 6 6 7 8 10 9 10 11 12 12 12 12 13 12 12
9 9 10 12 14 15 13 13 14 13 14 15 13 12 10 9 8 8 9 9 8 6 4 5 5 4 3 3 3 3 3 4 4 5 6 7 9 10 10 11 11 10 11
7 7 7 6 6 7 7 7 7 6 6 6 5 3 3 5 4 3 3 3 2 1 3 4 4 4 4 4 4 4 4 3 3 4 4 5 6 6 7 8 8 8 9
Wind_Direction
312 314 314 314 315 313 308 304 301 299 298 295 291 287 282 277 269 263 257 259 246 246 246 248 256 263 251 244 257 245 230 244 242 269 219 229 230 231 231 231 228 227 224
314 314 318 319 322 319 313 308 305 301 302 299 299 293 285 280 272 263 259 253 238 243 244 245 250 252 259 258 241 261 238 231 245 172 193 203 222 231 238 240 239 238 237
316 318 322 324 324 323 319 315 312 310 311 310 305 300 297 291 280 267 257 250 240 244 247 250 246 244 240 251 253 265 245 237 223 198 159 188 208 218 214 234 242 247 250
313 324 329 334 336 332 322 319 320 324 322 321 319 316 313 311 304 277 254 243 240 243 239 253 250 239 249 247 251 251 270 269 221 190 162 154 175 192 195 143 121 143 127
322 338 345 344 350 346 332 330 334 336 335 336 331 331 329 325 317 297 255 240 236 240 246 246 242 251 241 239 246 255 273 254 200 180 146 149 158 141 172 164 129 123 114
326 336 350 354 356 358 351 347 347 346 347 348 346 345 342 337 334 320 249 235 235 236 240 247 249 257 256 260 263 255 256 255 207 192 163 180 173 151 157 149 145 134 105
315 334 351 354 357 359 1 356 353 355 355 353 354 357 354 353 351 357 257 237 243 244 249 249 243 248 255 261 262 256 259 254 228 207 183 178 164 174 159 152 157 128 106
296 317 346 350 352 359 3 1 358 358 2 360 5 7 7 9 12 22 41 104 269 278 262 254 248 253 249 230 200 173 157 179 208 205 206 189 195 173 165 150 140 123 123
268 295 326 348 350 356 0 3 3 5 6 9 16 17 20 21 25 32 49 51 55 54 67 114 162 158 150 168 144 112 94 86 101 128 145 148 153 161 164 150 128 125 113
251 274 307 342 347 356 356 4 12 6 4 11 19 22 26 27 33 35 42 38 42 46 55 68 84 106 112 135 128 113 98 95 101 102 102 105 115 130 141 156 149 137 119
241 269 292 341 359 1 0 9 12 12 14 11 12 23 35 35 36 41 44 43 38 47 47 51 65 79 89 106 118 111 113 117 105 104 105 110 117 127 130 140 141 141 137
227 247 262 293 11 21 16 16 21 18 7 7 10 18 20 28 35 38 44 51 56 57 51 59 69 73 76 80 87 92 97 107 101 98 98 95 108 114 120 131 145 157 160
218 226 246 267 284 40 38 23 21 19 13 7 8 12 15 26 33 30 36 46 60 67 66 68 73 76 79 77 76 87 103 94 91 87 83 93 111 112 115 118 124 129 132
218 216 226 237 248 343 49 55 34 24 14 10 5 5 6 19 25 32 42 52 62 68 72 71 71 77 80 88 89 88 94 102 99 100 101 110 118 118 116 119 116 119 119
218 219 217 219 221 223 133 63 27 13 26 10 11 10 7 23 26 26 33 44 55 62 77 79 76 74 72 74 80 84 92 100 102 108 113 118 119 121 122 136 133 116 124
207 212 215 212 209 205 196 173 97 80 12 24 30 52 41 42 30 32 35 47 56 66 73 69 67 70 73 81 86 88 90 99 106 113 114 116 122 133 133 134 125 114 122
206 206 205 204 209 206 201 205 208 218 191 193 169 38 27 18 15 17 38 45 46 81 81 73 71 70 70 71 71 78 84 95 106 113 127 137 141 141 133 130 130 125 115
214 208 206 209 204 206 208 212 209 205 216 234 246 218 174 330 328 345 350 11 29 49 67 74 82 87 84 80 80 90 108 117 120 132 145 153 155 155 147 150 149 142 153
208 207 209 206 211 209 212 214 217 218 216 206 224 233 242 244 263 285 358 46 45 39 54 58 70 88 115 140 145 143 151 154 163 164 170 172 171 171 168 176 180 184 182
208 205 208 200 202 205 210 209 210 215 219 220 219 215 217 220 246 266 280 285 306 316 312 316 278 220 218 256 265 253 233 228 224 222 224 220 216 209 205 204 201 205 206
198 199 205 199 202 204 204 208 213 213 214 219 231 228 222 216 238 239 241 251 231 225 227 233 249 267 260 244 233 237 239 246 244 240 236 235 230 227 221 226 226 218 216
199 195 196 200 198 199 205 212 212 216 220 221 228 227 220 224 227 249 254 246 243 237 226 226 232 235 247 252 252 236 229 231 230 238 233 232 231 228 225 221 219 219 214
200 194 192 195 199 202 203 208 211 215 222 231 230 231 228 231 228 231 243 239 220 221 231 231 224 243 262 257 248 245 239 250 250 239 238 236 231 225 229 225 223 214 209
201 198 193 188 189 196 200 206 215 224 225 232 236 236 235 240 244 247 248 238 227 223 234 258 277 278 267 258 257 257 250 239 241 238 229 220 223 222 218 220 217 218 213
188 187 184 181 186 195 198 205 217 225 234 238 240 242 245 249 243 221 225 238 230 231 264 303 318 322 311 297 287 278 272 259 246 234 228 221 215 211 211 212 205 199 196
146 152 160 167 177 192 191 201 215 220 230 243 234 204 168 182 211 225 203 191 202 271 309 319 327 333 330 324 323 310 309 300 289 259 237 222 217 210 208 205 198 190 188
Height
739 735 731 728 724 719 713 708 704 698 694 689 685 681 677 673 670 667 664 663 663 663 664 665 664 664 662 663 661 657 660 663 662 663 664 668 675 677 680 683 684 687 690
736 733 729 725 719 714 708 703 698 692 688 683 678 672 668 663 659 656 654 652 652 654 655 657 656 657 656 655 656 655 654 657 662 660 665 667 670 672 676 678 679 682 684
733 730 726 721 715 709 703 698 693 687 682 677 672 667 660 654 649 646 644 644 644 646 648 649 649 647 648 649 649 649 647 650 651 655 657 662 666 668 672 675 676 680 682
730 726 723 718 712 706 701 695 690 684 679 673 667 661 654 647 642 637 635 635 636 638 640 640 640 641 642 642 644 644 644 646 645 648 652 658 663 667 670 672 676 680 681
727 724 720 716 710 704 699 693 688 682 677 670 664 657 649 643 636 631 628 628 630 632 633 633 634 635 636 637 638 639 642 642 639 643 647 652 656 660 668 671 677 679 686
724 722 718 714 708 702 697 693 687 682 676 669 662 655 647 640 632 623 621 623 625 626 627 628 629 630 631 632 634 636 637 638 632 636 642 646 651 651 662 669 679 681 689
722 720 717 713 707 702 697 693 687 681 676 669 662 655 648 641 632 621 619 622 623 623 623 623 623 624 625 628 628 630 629 631 630 630 633 638 646 649 653 666 670 674 685
720 718 715 712 707 702 697 693 688 683 677 671 664 658 652 645 637 630 624 622 621 620 618 617 618 618 619 620 622 624 626 625 628 630 633 635 638 646 655 660 668 679 688
717 715 713 709 706 701 697 694 690 685 679 674 668 662 656 650 643 637 632 629 626 624 620 618 616 615 616 617 619 623 626 629 630 631 634 639 644 649 655 660 674 678 693
713 712 710 708 706 703 700 697 693 690 685 679 674 668 662 656 650 644 640 637 633 631 628 626 624 623 622 621 623 626 629 634 637 638 641 647 651 658 664 669 676 680 690
710 711 710 707 706 704 701 699 695 691 688 683 679 674 668 662 659 654 649 644 641 639 636 633 632 629 628 628 629 631 633 640 642 641 646 651 658 662 668 676 683 688 694
706 707 707 706 704 702 700 698 696 692 689 685 681 678 674 669 666 662 658 654 651 647 647 646 644 640 638 638 639 642 642 642 645 650 655 659 663 670 672 677 685 693 698
701 703 705 705 704 701 699 697 696 694 692 688 685 682 678 675 672 669 666 662 659 656 655 654 652 649 648 649 650 650 650 652 654 657 661 666 673 673 677 683 692 696 699
697 698 701 702 703 701 700 697 695 694 693 691 689 687 684 681 677 674 672 669 666 663 662 661 660 658 656 657 658 658 658 660 662 667 673 677 680 682 687 692 696 700 703
693 696 698 700 700 700 699 699 699 697 696 695 693 692 689 686 684 681 677 674 672 670 669 668 667 666 666 666 666 667 668 670 671 676 678 682 683 686 692 697 701 702 703
685 689 692 694 695 696 697 697 697 697 697 696 694 692 690 688 687 685 682 679 677 675 673 673 673 673 672 674 674 675 676 677 679 680 682 684 688 694 698 701 703 704 707
678 682 686 687 691 692 692 693 693 694 694 694 693 693 692 690 689 686 685 683 681 680 679 679 678 678 679 679 680 680 681 682 683 686 690 693 696 699 701 704 706 707 708
672 675 678 681 684 687 688 688 689 691 691 692 692 691 690 690 689 688 686 685 683 682 682 683 683 683 684 685 686 686 687 689 691 693 695 696 697 698 700 702 703 705 708
663 668 672 676 679 681 684 687 688 688 688 689 690 690 689 689 688 688 686 686 686 685 685 685 686 687 688 688 688 689 690 691 692 694 696 697 699 700 702 703 704 706 709
655 661 665 669 673 677 680 681 683 685 685 685 685 686 687 688 688 688 686 685 685 686 687 687 686 685 685 687 688 690 690 691 691 692 694 695 697 699 701 703 705 705 706
645 652 657 663 665 669 672 676 679 680 681 682 683 683 684 685 685 686 687 686 685 685 684 685 687 688 688 687 687 687 690 691 692 693 693 695 696 698 700 701 702 703 705
641 645 650 655 659 663 667 669 672 675 677 678 679 680 681 682 682 684 684 684 686 686 686 687 686 686 687 688 689 688 687 688 690 691 692 694 695 697 698 698 700 701 702
636 639 642 648 654 658 662 665 668 669 672 674 675 676 678 680 680 680 683 683 683 683 684 683 683 685 685 685 686 687 687 688 688 689 690 690 691 692 693 694 694 696 697
633 636 639 641 646 651 656 660 663 665 667 670 671 672 672 674 676 677 677 679 680 679 681 682 682 681 681 682 682 683 683 683 684 684 685 685 686 687 688 690 690 691 693
633 637 640 642 645 649 653 657 660 662 665 666 668 670 671 672 673 673 675 676 676 677 678 679 679 679 680 680 679 681 680 680 680 681 682 682 683 684 685 686 687 688 690
634 637 640 643 645 649 653 656 659 661 664 666 667 668 669 670 672 673 673 675 675 676 677 677 677 677 678 678 677 678 678 677 677 678 679 679 680 681 682 683 685 686 688